Tracking 31027 objects as of 19-Jul-2025
HD Live streaming from Space Station
objects crossing your sky now

STARLINK-6294

Track STARLINK-6294 now!
10-day predictions
STARLINK-6294 is classified as:


NORAD ID: 57225
Int'l Code: 2023-094H
Perigee: 565.3 km
Apogee: 567.2 km
Inclination: 43.0 °
Period: 95.8 minutes
Semi major axis: 6937 km
RCS: Unknown
Launch date: July 7, 2023
Source: United States (US)
Launch site: AIR FORCE WESTERN TEST RANGE (AFWTR)
Your satellite tracking list
CZ-4C DEB
Track 1 satellite(s)




NASA's NSSDC Master Catalog

Two Line Element Set (TLE):
1 57225U 23094H   25199.53690978  .00000650  00000-0  63199-4 0  9995
2 57225  43.0026 222.9631 0001363 281.4540  78.6149 15.02538277111895
Source of the keplerian elements: AFSPC